Location: Gad�tanya
(48.0500°N, 20.8500°E)
Time: 11:53:02
(UTC+00:00)

USA 215 - Pass Details

Date: 05 July 2020
Orbit: 1102 x 1106 km, 123.0° (Epoch: 08 August)

Event Time Altitude Azimuth Distance (km) Brightness Sun altitude
Rises 19:12:50 0° 57° (ENE) 3,925 6.0 -5.3°
Reaches altitude 10° 19:15:39 10° 67° (ENE) 2,964 5.3 -5.6°
Maximum altitude 19:21:24 32° 129° (SE) 1,791 3.9 -6.3°
Drops below altitude 10° 19:27:06 10° 191° (S) 2,951 5.2 -7.0°
Sets 19:29:53 0° 201° (SSW) 3,905 5.9 -7.3°
